ZL4VM-1 Weather Reports


time (UTC)temp
F
wind
direction
speed
knots
gust
knots
rain 1hr
in
rain 24hr
in
rain mn
in
humidity
%
barometer
mb
20260505100643 46 0 0.0 0.0 0.00 0.00 0.00 97 1022.5
20260505095743 46 0 0.0 0.0 0.00 0.00 0.00 97 1022.8
20260505094843 46 353 0.0 1.7 0.00 0.00 0.00 97 1022.8
20260505093943 46 1 0.9 1.7 0.00 0.00 0.00 97 1022.8
20260505093043 46 1 0.0 1.7 0.00 0.00 0.00 97 1022.8
20260505092143 47 1 1.7 2.6 0.00 0.00 0.00 99 1022.9
20260505091243 47 1 0.9 2.6 0.00 0.00 0.00 99 1022.8
20260505090343 46 51 0.0 1.7 0.00 0.00 0.00 97 1022.8
20260505085443 47 30 0.0 2.6 0.00 0.00 0.00 99 1023.0
20260505084543 47 15 0.9 3.5 0.00 0.00 0.00 99 1023.0
20260505083643 48 59 0.0 4.3 0.00 0.00 0.00 99 1023.0
20260505081843 48 35 0.0 3.5 0.00 0.00 0.00 99 1023.2
20260505080943 48 45 0.0 3.5 0.00 0.00 0.00 99 1023.3
20260505080043 48 1 0.0 7.0 0.00 0.00 0.00 99 1023.3
20260505075143 49 1 1.7 4.3 0.00 0.00 0.00 99 1023.4
20260505071543 49 353 0.0 4.3 0.00 0.00 0.00 99 1023.6
20260505070643 49 27 0.9 7.0 0.00 0.00 0.00 98 1023.6
20260505065743 49 326 2.6 8.7 0.00 0.00 0.00 98 1023.7
20260505064843 49 349 2.6 6.1 0.00 0.00 0.00 97 1023.7
20260505063943 49 357 1.7 6.1 0.00 0.00 0.00 97 1023.7
20260505063043 49 12 3.5 7.0 0.00 0.00 0.00 97 1023.8
20260505062143 50 10 0.0 13.9 0.00 0.00 0.00 97 1023.8
20260505061243 50 41 7.0 13.9 0.00 0.00 0.00 96 1023.9
20260505060343 50 66 2.6 6.1 0.00 0.00 0.00 96 1023.7
20260505055443 50 359 0.0 8.7 0.00 0.00 0.00 94 1024.0
20260505054543 50 20 3.5 9.6 0.00 0.00 0.00 94 1023.7
20260505052744 50 13 1.7 10.4 0.00 0.00 0.00 93 1023.9
20260505051843 51 12 3.5 11.3 0.00 0.00 0.00 92 1023.9
20260505050943 51 357 7.8 11.3 0.00 0.00 0.00 90 1023.9
20260505041543 57 17 3.5 9.6 0.00 0.00 0.00 75 1024.4
20260505040643 57 21 1.7 7.0 0.00 0.00 0.00 74 1024.6
20260505034842 58 61 2.6 9.6 0.00 0.00 0.00 74 1024.7
20260505033943 58 358 1.7 12.2 0.00 0.00 0.00 74 1024.5
20260505033043 58 20 1.7 9.6 0.00 0.00 0.00 73 1024.4
20260505032143 58 76 4.3 9.6 0.00 0.00 0.00 72 1024.6
20260505031242 59 72 2.6 8.7 0.00 0.00 0.00 70 1024.7
20260505030342 59 21 4.3 9.6 0.00 0.00 0.00 69 1024.9
20260505025443 59 309 3.5 7.0 0.00 0.00 0.00 70 1025.0
20260505023642 59 12 3.5 9.6 0.00 0.00 0.00 72 1024.9
20260505022743 58 64 3.5 7.8 0.00 0.00 0.00 74 1025.0
20260505020943 56 103 4.3 9.6 0.00 0.00 0.00 78 1025.2
20260505020042 58 73 6.1 7.8 0.00 0.00 0.00 74 1025.4
20260505015143 58 11 3.5 7.8 0.00 0.00 0.00 75 1025.6
20260505014242 58 59 3.5 8.7 0.00 0.00 0.00 75 1025.5
20260505013343 57 63 3.5 11.3 0.00 0.00 0.00 76 1025.7
20260505011542 59 2 1.7 7.8 0.00 0.00 0.00 70 1025.8
20260505010642 58 33 3.5 7.8 0.00 0.00 0.00 74 1025.9
20260505005743 57 90 1.7 7.0 0.00 0.00 0.00 74 1026.3
20260505004843 57 52 2.6 9.6 0.00 0.00 0.00 74 1026.5
20260505003942 56 90 4.3 7.8 0.00 0.00 0.00 78 1026.7
20260505003042 55 93 3.5 8.7 0.00 0.00 0.00 77 1026.6
20260505002142 56 67 3.5 9.6 0.00 0.00 0.00 75 1026.8
20260505001242 57 18 2.6 7.8 0.00 0.00 0.00 72 1027.0
20260505000343 58 65 1.7 7.8 0.00 0.00 0.00 68 1027.1
20260504235442 58 322 1.7 7.0 0.00 0.00 0.00 68 1027.2
20260504234542 58 42 1.7 7.0 0.00 0.00 0.00 71 1027.4
20260504232742 58 19 1.7 7.8 0.00 0.00 0.00 69 1027.6
20260504231842 59 33 3.5 7.8 0.00 0.00 0.00 71 1027.7
20260504230942 57 71 1.7 6.1 0.00 0.00 0.00 71 1027.8
20260504230042 57 76 1.7 5.2 0.00 0.00 0.00 79 1027.7
20260504225142 54 77 0.9 7.0 0.00 0.00 0.00 88 1027.7
20260504224242 52 90 1.7 6.1 0.00 0.00 0.00 95 1028.0
20260504223342 51 85 1.7 6.1 0.00 0.00 0.00 99 1028.0
20260504222442 51 27 1.7 4.3 0.00 0.00 0.00 99 1028.1
20260504221542 50 90 0.0 3.5 0.00 0.00 0.00 99 1027.9
20260504220642 50 87 2.6 4.3 0.00 0.00 0.00 99 1028.4
20260504214842 50 68 0.9 2.6 0.00 0.00 0.00 99 1028.4
20260504213942 49 76 1.7 3.5 0.00 0.00 0.00 99 1028.2
20260504213042 49 79 0.9 3.5 0.00 0.00 0.00 99 1028.6
20260504211242 48 1 0.0 1.7 0.00 0.00 0.00 99 1028.8
20260504210342 48 22 0.9 1.7 0.00 0.00 0.00 99 1028.7
20260504205442 48 73 0.0 1.7 0.00 0.00 0.00 99 1029.1
20260504204542 48 90 0.0 1.7 0.00 0.00 0.00 99 1028.7
20260504203642 46 90 0.0 0.9 0.00 0.00 0.00 97 1028.9
20260504202742 46 90 0.0 1.7 0.00 0.00 0.00 99 1029.0
20260504201842 46 52 0.0 1.7 0.00 0.00 0.00 97 1028.8
20260504200942 46 69 0.9 1.7 0.00 0.00 0.00 97 1028.8
20260504200042 46 59 0.9 1.7 0.00 0.00 0.00 97 1029.0
20260504194242 45 90 0.0 1.7 0.00 0.00 0.00 97 1029.0
20260504193342 45 90 0.9 1.7 0.00 0.00 0.00 97 1028.9
20260504192443 44 0 0.0 0.0 0.00 0.00 0.00 98 1028.8
20260504191542 45 90 0.0 1.7 0.00 0.00 0.00 97 1029.0
20260504190642 45 90 0.0 1.7 0.00 0.00 0.00 97 1029.0
20260504185742 44 90 0.9 1.7 0.00 0.00 0.00 98 1029.0
20260504183942 44 90 0.0 1.7 0.00 0.00 0.00 98 1029.0
20260504183042 43 90 0.0 1.7 0.00 0.00 0.00 98 1029.0
20260504182142 43 0 0.0 0.0 0.00 0.00 0.00 98 1029.0
20260504180342 44 90 0.0 0.9 0.00 0.00 0.00 98 1029.0
20260504175442 44 94 0.0 1.7 0.00 0.00 0.00 98 1029.2
20260504174542 44 90 0.0 1.7 0.00 0.00 0.00 98 1029.1
20260504173642 44 90 0.0 0.9 0.00 0.00 0.00 98 1029.1
20260504172742 44 0 0.0 0.0 0.00 0.00 0.00 98 1029.1
20260504171842 45 0 0.0 0.0 0.00 0.00 0.00 97 1029.1
20260504170942 45 0 0.0 0.0 0.00 0.00 0.00 97 1029.2
20260504150342 46 240 0.9 2.6 0.00 0.00 0.00 97 1029.6
20260504140941 46 225 0.0 0.9 0.00 0.00 0.00 97 1029.9
20260504130641 47 225 0.0 1.7 0.00 0.00 0.00 99 1029.5